FENGYUN 1C DEB, 29786

Orbit data source: Space-Track

FENGYUN 1C DEB, 29786 is space debris in SSO originally from a launch on Mon, 10 May 1999 UTC launched from the Taiyaun Space Center, China (TSC). Fengyun 1C debris stems from the Chinese weather satellite Fengyun-1C, which was intentionally destroyed by a Chinese anti-satellite missile in 2007. This event dramatically increased the amount of space debris, with thousands of trackable fragments posing hazards to satellites and human spaceflight. The Fengyun 1C debris cloud has become a focal point in discussions about space sustainability and the need for international regulations to prevent the creation of new debris.

Loading next visibility...
Identifier
29786, 1999-025CC
Orbit
SSO
Country
Flag of CNCN / PRC
Related business
Manufacturer
Unknown
Mission
Spacecraft
Bus & Motor
Unknown
Mass
Unknown
Launch date (UTC)
1999-05-10 (27 years ago)
Launch vehicle
Unknown
Launch site
Taiyaun Space Center, China (TSC)
Object type
Payload
Rocket body
Debris
Shape & HBR
Unknown shape, 0.1 m
Radar Cross Section
Small (<0.1 m²)

Expand to show TLE details & history
Last TLE update: 21 hours ago

TLE from 21 hours ago
0 FENGYUN 1C DEB
1 29786U 99025CC  26106.62112017  .00000121  00000-0  91792-4 0  9998
2 29786  98.7279 125.0163 0076762 310.0094 168.7134 14.09170385989193
Epoch: 2026-04-16T14:54Z
TLE epoch observation values (Epoch: 2026-04-16T14:54:24.782Z)
Latitude
60.02165°
Longitude
-108.00106°
Altitude
926.914 km
Speed
7.366 km/s
True Right ascension
21h 21m 28s
True Declination
59° 52' 34"
Sunlit
Object was in daylight at epoch
Visualization orbit readout
Latitude
Unknown
Longitude
Unknown
Altitude
Unknown
Speed
Unknown
Apparent Right ascension
Unknown
Apparent Declination
Unknown
Sunlit
N/A
Visualization observer readout
Local Sidereal Time
18:14:51
Azimuth
Unknown
Elevation
Unknown
Doppler factor
Unknown
Orbital elements
Apogee altitude
914.942 km
Perigee altitude
803.829 km
Semi-major axis
7,237.523 km
Eccentricity
0.00768
Inclination
98.7279°
RAAN
125.0163°
Arg. of periapsis
310.0094°
True anomaly
168.88395°
Mean anomaly
168.7134°
Eccentric anomaly
168.79884°
Mean motion
3.52499 °/min
Orbital period
102.13 mins
BSTAR
0.000091792
Loading maneuver chart data...
Computing Atmospheric mass density...
Loading historical data...
Loading historical data...
Loading historical data...
Loading historical data...
Loading historical data...
Loading historical data...
Loading historical data...

Documentation

Showing up to 5 results
|